Theta_e
309 310 310 310 310 309 309 309 309 309 309 309 309 309 308 308 308 312 320 317 315 314 316 315 315 316 317 317 318 315 313 314 317 316 315 314 315 314 314 316 314 315 314 314 319
310 310 310 310 310 310 310 310 310 310 311 311 311 312 311 308 309 316 316 314 313 312 316 315 315 316 314 318 317 314 314 316 316 314 316 314 314 313 313 312 312 312 312 315 317
313 313 312 311 312 312 312 313 314 314 314 313 314 314 313 309 318 316 314 312 310 311 316 316 316 316 316 316 318 317 316 317 317 317 316 316 314 314 314 313 312 312 312 311 315
315 315 314 314 314 315 315 315 316 315 314 314 314 314 314 310 312 313 314 312 311 312 316 316 315 316 316 316 316 318 316 316 316 316 314 316 316 315 314 314 312 311 311 311 310
315 315 314 315 315 316 317 318 318 318 318 316 315 313 313 316 314 317 312 312 311 314 315 315 315 315 316 315 314 315 314 316 314 313 313 313 314 315 314 312 311 311 311 310 309
315 315 315 316 317 318 319 320 320 320 319 318 316 313 314 314 314 316 315 311 313 314 314 314 314 314 314 314 314 313 313 313 313 313 312 313 312 314 312 310 310 310 309 308 308
316 316 316 318 319 320 321 322 322 321 318 315 313 312 317 312 314 315 313 315 315 314 314 315 315 315 314 314 313 313 313 312 312 312 312 311 314 313 311 309 309 309 308 307 307
316 317 318 319 320 322 323 323 322 320 314 311 310 315 311 311 312 312 314 313 314 315 314 314 314 313 314 313 312 313 312 313 313 313 313 312 312 312 310 309 310 310 308 308 305
317 318 318 319 322 322 322 323 321 314 313 311 316 318 314 308 311 310 312 312 314 313 312 313 313 313 312 312 312 312 311 312 313 313 313 312 311 311 310 309 309 309 307 306 304
318 318 319 321 323 322 322 322 318 314 319 316 315 313 310 311 310 310 310 312 312 312 311 312 310 311 309 309 312 313 312 313 313 313 312 312 310 310 309 309 310 309 306 304 303
318 319 320 322 323 322 322 320 319 318 315 318 317 312 317 310 310 311 310 311 311 312 312 311 310 311 311 310 311 312 313 313 312 312 311 311 311 311 310 310 310 306 304 304 303
320 321 322 323 323 322 320 319 316 316 319 317 319 321 314 312 313 310 310 310 312 312 312 312 312 311 311 313 313 313 313 312 311 312 312 311 311 310 311 308 306 305 304 303 303
321 321 321 322 323 321 320 316 313 312 316 318 314 316 313 314 317 312 309 310 311 312 312 312 313 313 315 314 314 314 313 313 313 311 309 309 308 309 307 306 306 304 303 303 302
322 322 322 322 321 322 319 317 315 313 319 321 315 309 309 310 312 308 309 311 314 314 314 315 314 314 314 313 312 313 311 311 312 310 310 308 310 309 308 307 305 303 301 300 300
323 323 322 322 323 322 318 317 316 313 323 316 310 308 308 311 309 308 307 309 313 312 312 314 311 311 312 311 310 312 310 310 310 310 310 310 310 309 308 309 306 303 302 300 299
323 323 322 321 321 320 319 318 317 321 326 314 309 310 308 308 308 308 308 307 308 311 310 310 309 310 311 311 311 309 310 309 308 308 312 311 311 313 309 308 306 304 302 301 299
323 322 321 321 322 320 320 320 326 328 321 315 312 310 310 309 308 310 310 309 312 316 314 314 312 310 310 312 309 309 309 314 315 312 315 315 316 314 312 306 306 303 301 299 298
321 319 320 319 320 319 320 323 326 323 323 315 312 311 314 311 310 309 312 313 312 314 315 318 318 311 309 312 313 309 311 315 317 319 316 313 317 316 306 305 303 301 300 299 297
316 313 315 317 319 320 321 325 322 322 318 320 319 320 319 319 320 311 310 314 315 312 315 314 315 309 309 308 311 315 316 315 316 313 311 314 313 308 306 304 302 300 298 297 297
311 309 310 313 316 316 318 322 319 317 316 317 321 319 319 317 319 317 316 313 312 311 311 316 314 315 310 311 310 314 313 315 315 313 312 312 311 310 309 306 303 299 298 296 295
309 309 310 310 314 314 316 316 314 313 314 316 317 318 315 314 316 314 314 314 312 311 313 315 315 313 313 313 314 308 311 313 314 314 315 310 309 310 310 306 303 299 298 296 295
306 309 308 313 311 313 314 312 310 310 310 312 313 314 315 313 312 311 312 312 312 310 315 314 313 309 313 311 309 309 311 310 315 313 311 313 313 307 306 303 300 300 298 295 293
306 308 309 313 310 311 310 312 311 310 311 312 312 312 311 309 311 310 310 310 311 312 313 312 310 302 304 303 309 312 312 312 312 311 310 310 309 303 301 302 300 299 297 295 292
304 309 307 309 309 309 310 310 311 310 310 311 311 310 310 310 309 310 310 310 308 308 309 309 310 303 305 302 307 306 306 305 308 307 303 306 305 303 301 302 300 300 296 293 289
302 302 305 308 310 310 309 309 309 310 309 309 310 309 308 308 308 308 307 308 307 308 306 306 303 306 305 304 302 302 303 303 302 303 302 302 301 300 300 297 295 292 293 293 292
299 300 300 302 306 308 309 308 307 309 309 307 308 308 308 307 305 302 303 303 303 302 303 303 297 298 293 300 300 300 300 298 298 298 299 299 301 299 295 294 293 291 290 289 289
296 296 300 302 303 307 306 307 305 305 302 304 306 305 303 301 300 299 299 298 300 300 300 300 296 289 292 297 293 291 295 296 297 297 297 297 296 291 292 293 290 290 290 290 290
Wind_Speed
2 3 3 4 4 5 5 6 7 7 8 9 9 11 13 15 16 10 4 3 3 4 4 7 3 2 2 1 1 3 4 2 4 5 6 6 5 6 3 2 2 3 5 6 9
4 5 5 5 6 6 6 7 7 8 8 9 10 11 13 16 16 7 4 4 6 5 9 7 3 4 2 2 1 4 3 5 2 1 3 4 1 3 5 7 6 6 7 1 12
5 5 5 5 5 7 7 8 8 10 10 10 10 10 10 12 4 1 1 2 4 9 7 7 4 4 2 2 3 4 5 3 7 5 3 3 7 4 5 6 8 9 7 6 11
5 5 5 5 5 6 7 8 10 11 12 11 11 10 9 5 2 1 0 1 5 11 4 2 1 3 3 3 6 3 8 7 5 4 5 4 1 8 5 13 10 11 9 6 11
6 6 5 5 5 6 8 9 11 12 12 12 11 7 2 1 6 4 3 2 7 10 4 2 2 4 2 3 4 4 4 3 7 8 8 6 5 7 9 14 12 14 11 12 10
7 6 5 5 6 6 8 11 13 13 13 12 9 3 2 3 2 4 2 4 3 6 2 4 2 3 4 4 2 4 5 6 6 10 8 6 7 5 9 7 11 10 10 9 8
8 6 5 5 6 7 9 12 13 14 11 9 5 4 2 9 5 2 2 3 6 5 2 2 2 2 2 4 3 3 5 7 11 7 6 5 3 8 13 8 8 9 8 8 9
9 7 6 6 6 9 11 13 14 11 8 6 3 4 5 4 3 3 2 2 4 6 1 1 4 2 2 2 6 4 1 3 6 5 3 2 6 9 11 6 11 13 9 8 12
10 8 7 7 7 9 12 14 14 6 3 3 3 2 5 3 3 2 4 2 5 4 3 2 3 3 3 4 4 2 3 5 7 2 3 4 6 9 9 9 11 10 8 10 11
11 9 8 7 8 10 13 13 9 4 1 0 1 1 2 3 3 3 4 8 2 4 3 3 3 2 3 3 4 5 4 4 6 6 6 5 10 9 11 10 12 5 7 11 13
12 10 8 7 8 9 10 3 2 1 2 7 4 3 4 5 4 1 3 5 4 1 3 2 4 6 11 9 3 3 4 5 5 9 6 9 7 12 12 10 13 7 12 12 12
13 10 8 7 8 8 7 1 2 1 6 10 11 4 5 6 2 2 6 4 4 5 5 3 6 11 5 5 4 2 4 7 6 4 2 6 12 14 16 5 6 13 11 10 9
14 10 9 8 8 5 2 5 4 2 1 5 0 3 4 5 3 6 6 4 4 6 7 7 7 6 5 4 4 5 5 5 8 3 5 5 7 7 5 11 13 11 11 10 10
16 14 12 7 4 6 3 5 3 1 2 4 2 0 2 2 2 0 1 2 3 8 5 6 5 7 4 4 6 4 3 6 4 3 3 4 5 6 7 7 6 7 7 8 10
19 17 13 13 3 4 5 6 1 2 4 1 3 2 2 3 6 1 1 1 3 4 4 5 7 4 3 7 7 7 2 1 2 3 3 4 1 7 8 3 4 6 9 9 9
24 21 15 10 8 5 8 5 1 3 7 2 3 4 4 2 2 3 1 1 2 1 2 5 1 5 8 4 3 3 2 4 2 3 2 5 6 5 5 7 7 7 9 9 7
27 22 17 12 5 12 10 4 2 4 2 4 4 4 4 5 3 4 4 3 4 3 3 3 4 3 2 2 4 4 3 3 3 1 5 1 0 7 5 7 14 13 9 7 6
27 18 16 7 8 12 9 2 6 6 5 3 4 5 5 7 5 7 4 3 5 2 1 4 6 3 1 3 5 5 5 4 5 3 4 6 5 3 8 15 14 10 8 7 6
24 18 13 11 10 9 3 5 8 6 2 5 3 4 5 6 6 5 7 7 7 9 8 4 4 0 2 1 4 3 3 3 3 0 2 4 3 4 7 11 10 9 8 7 6
11 5 4 14 9 3 1 5 4 4 2 3 8 7 8 5 8 8 7 2 5 1 2 4 2 3 3 2 2 3 4 3 2 2 4 5 5 4 6 11 9 8 7 6 5
12 3 7 15 10 2 4 6 6 4 4 4 4 2 2 1 5 3 4 1 4 3 5 4 3 4 5 4 7 1 2 1 2 4 4 2 5 0 6 11 10 6 7 7 6
7 3 14 18 4 3 7 7 5 5 3 3 3 3 3 2 1 5 7 2 2 7 6 3 4 3 8 3 2 5 5 6 3 4 3 1 8 4 6 9 9 8 8 8 7
5 3 5 7 5 7 4 5 6 5 5 6 8 6 5 7 4 7 5 2 4 3 6 4 1 2 9 4 4 1 0 3 2 2 4 3 8 4 6 7 8 8 7 6 6
3 4 1 2 1 3 6 7 6 6 5 5 4 4 4 5 4 3 3 3 3 4 5 3 3 6 8 4 3 3 6 1 3 2 3 10 11 19 18 4 6 8 7 7 7
1 4 4 6 9 10 3 4 10 7 5 7 4 8 6 6 4 5 3 4 4 7 3 4 4 3 3 0 3 5 10 13 6 11 8 20 17 19 14 4 2 5 6 7 7
4 3 1 0 4 14 9 5 7 9 9 5 5 7 7 7 7 4 6 3 3 1 4 2 2 2 4 4 5 10 18 12 15 15 16 19 21 15 2 4 4 6 6 5 5
2 2 2 3 6 7 6 9 8 6 4 2 9 5 5 4 4 4 5 5 4 6 4 6 5 3 6 1 5 8 13 17 10 12 7 8 9 2 4 4 5 4 3 4 5
Wind_Direction
335 338 339 337 335 331 331 331 330 332 331 330 331 330 327 322 319 308 252 257 202 228 157 149 148 198 296 283 53 56 59 258 258 33 331 351 34 347 338 270 328 227 212 250 184
316 317 320 323 322 321 323 323 324 325 325 326 328 331 330 326 323 274 242 226 260 204 165 163 178 183 350 217 150 102 123 235 172 126 324 301 81 314 355 314 291 306 293 327 189
312 318 321 322 327 329 330 330 332 329 325 319 323 327 330 328 331 285 176 214 191 173 161 215 268 163 205 147 211 189 199 215 299 330 2 295 314 326 314 291 250 264 269 306 205
300 309 319 323 330 332 334 331 329 326 322 319 319 321 327 330 298 352 146 152 171 175 214 210 216 151 217 223 219 204 232 240 263 308 316 267 279 297 207 254 249 259 261 276 290
288 294 305 316 325 327 329 328 325 321 317 311 309 309 317 348 257 312 307 187 179 178 223 205 198 181 257 263 355 226 248 282 310 302 274 288 254 250 271 264 273 275 279 271 279
273 276 287 301 309 317 322 322 320 318 312 306 300 272 161 226 221 291 312 162 155 186 234 225 215 176 250 240 193 326 325 290 279 268 270 253 279 155 274 293 308 305 285 290 294
259 262 270 285 299 309 316 319 317 316 311 307 291 185 182 234 216 257 148 163 171 188 224 342 271 117 41 331 306 328 331 316 267 262 234 152 308 231 255 317 299 305 306 321 358
244 252 266 280 294 308 316 317 315 312 322 313 218 160 237 198 195 179 170 131 203 204 189 34 73 92 154 313 360 312 63 314 288 18 275 113 251 268 271 288 308 295 317 336 64
235 243 256 273 288 308 314 312 307 302 321 81 127 181 272 158 166 180 181 170 123 116 106 93 84 179 12 93 1 309 240 224 311 39 161 188 248 258 281 283 278 291 322 62 52
235 238 249 268 286 313 314 309 298 282 272 341 282 6 212 210 151 142 160 150 122 109 49 71 50 87 25 107 221 219 246 291 279 305 341 285 256 263 279 290 276 274 39 67 54
238 239 248 265 295 315 321 332 336 1 202 205 190 245 138 121 138 135 153 146 117 99 146 226 106 206 220 205 222 275 239 256 263 277 306 281 302 291 256 263 294 35 101 81 65
237 241 247 258 288 302 301 240 166 198 302 252 254 230 139 138 128 213 168 139 151 194 133 79 222 225 233 246 237 306 314 284 287 269 345 296 298 278 299 32 65 96 88 86 81
231 239 253 265 275 260 216 155 134 129 217 296 309 114 139 146 209 188 166 181 184 200 192 168 216 166 182 257 303 262 225 247 238 320 298 313 292 284 43 81 79 72 87 77 77
226 229 241 238 257 172 192 170 152 144 0 249 206 335 106 134 171 331 358 203 224 211 233 237 246 232 257 253 163 267 260 240 263 58 225 64 284 295 129 100 89 86 77 79 67
226 229 220 199 188 192 162 167 141 111 320 183 140 135 84 142 142 343 147 76 198 217 119 244 172 161 166 221 162 223 58 296 222 200 349 278 136 260 129 140 104 87 79 65 65
226 223 197 204 217 175 160 143 116 72 246 143 132 163 124 174 131 134 158 348 159 331 227 235 231 162 204 220 185 114 30 298 74 120 298 238 181 280 181 183 136 105 89 84 67
218 188 180 181 182 181 162 124 147 209 236 176 171 158 196 172 177 164 161 190 167 132 241 280 203 205 159 105 29 78 69 322 1 16 227 302 193 248 332 112 138 122 105 96 92
176 177 179 158 168 171 147 128 205 201 242 137 129 165 180 156 203 183 178 228 242 166 162 213 317 148 168 159 187 184 167 163 237 226 267 328 256 302 74 90 99 101 112 104 89
160 149 155 146 159 180 177 202 193 207 177 146 122 156 212 215 175 148 202 198 208 181 176 168 239 196 67 116 135 198 182 171 102 334 46 235 270 84 100 101 111 121 123 126 119
117 103 143 168 158 90 187 207 225 196 110 92 191 183 193 213 166 174 201 195 155 70 208 199 308 219 178 134 34 149 170 68 27 212 240 275 261 219 183 150 149 152 140 134 118
114 95 178 159 156 118 202 222 243 248 147 175 227 244 205 144 171 199 218 185 137 116 91 136 121 257 126 175 184 65 217 140 149 178 202 240 261 118 123 164 164 156 162 169 159
138 136 168 173 146 198 209 190 216 180 128 176 157 185 183 107 286 215 209 152 101 139 146 197 156 227 235 240 176 186 227 186 213 241 252 243 260 134 131 141 147 185 189 183 166
132 119 178 165 183 210 225 196 207 170 177 175 201 190 174 189 227 205 189 329 83 88 151 169 176 21 330 22 31 78 174 126 118 97 216 226 260 170 119 160 202 188 189 169 160
117 136 351 188 174 197 196 204 199 189 180 185 192 169 164 198 212 194 130 181 54 101 124 81 164 169 212 168 115 285 292 275 126 179 231 246 281 285 294 222 255 228 177 172 169
41 203 172 190 212 211 186 213 189 179 193 172 206 189 168 209 215 211 159 108 83 159 100 134 201 216 257 351 125 208 257 273 214 243 224 267 268 269 291 312 179 152 158 176 191
177 167 82 127 146 191 207 212 193 194 161 198 188 177 183 197 192 192 128 149 171 193 134 138 227 97 301 209 248 262 261 262 256 259 253 255 264 276 207 224 190 181 176 150 142
213 31 99 198 165 170 218 201 196 157 48 131 189 174 140 138 99 98 93 103 127 155 150 153 136 88 264 196 58 309 250 245 234 233 239 246 255 215 267 228 151 164 190 221 225